TimeEDT,TemperatureF,Dew PointF,Humidity,Sea Level PressureIn,VisibilityMPH,Wind Direction,Wind SpeedMPH,Gust SpeedMPH,PrecipitationIn,Events,Conditions,WindDirDegrees,DateUTC
12:53 AM,46.9,44.1,90,29.86,8.0,SSE,4.6,-,0.04,Rain,Light Rain,160,2013-04-11 04:53:00
1:53 AM,46.9,44.1,90,29.83,10.0,Calm,Calm,-,0.01,,Overcast,0,2013-04-11 05:53:00
2:42 AM,46.4,44.6,93,29.82,6.0,Calm,Calm,-,N/A,,Overcast,0,2013-04-11 06:42:00
2:53 AM,46.9,45.0,93,29.83,6.0,Calm,Calm,-,N/A,,Overcast,0,2013-04-11 06:53:00
3:53 AM,46.9,45.0,93,29.83,4.0,Calm,Calm,-,N/A,,Overcast,0,2013-04-11 07:53:00
4:46 AM,46.4,44.6,93,29.81,2.5,Calm,Calm,-,N/A,,Overcast,0,2013-04-11 08:46:00
4:53 AM,46.9,45.0,93,29.81,3.0,Variable,4.6,-,N/A,,Overcast,0,2013-04-11 08:53:00
5:42 AM,46.4,44.6,93,29.83,2.5,NNW,4.6,-,N/A,,Overcast,340,2013-04-11 09:42:00
5:53 AM,46.9,45.0,93,29.84,3.0,Variable,3.5,-,N/A,,Overcast,0,2013-04-11 09:53:00
6:30 AM,46.4,46.4,100,29.87,1.8,Variable,4.6,-,N/A,,Overcast,0,2013-04-11 10:30:00
6:53 AM,48.0,46.0,93,29.90,1.2,Variable,5.8,-,N/A,,Overcast,0,2013-04-11 10:53:00
7:53 AM,48.0,46.0,93,29.92,6.0,North,6.9,-,N/A,,Overcast,360,2013-04-11 11:53:00
8:53 AM,48.0,45.0,89,29.93,10.0,North,6.9,-,N/A,,Overcast,360,2013-04-11 12:53:00
9:53 AM,48.0,44.1,86,29.97,10.0,North,8.1,-,N/A,,Overcast,10,2013-04-11 13:53:00
10:53 AM,48.0,44.1,86,29.97,-9999.0,NNE,10.4,-,N/A,,Overcast,20,2013-04-11 14:53:00
11:53 AM,-9999,-9999,N/A,29.99,10.0,NE,12.7,-,N/A,,Overcast,50,2013-04-11 15:53:00
12:53 PM,48.2,41.0,76,30.00,10.0,ENE,12.7,-,N/A,,Overcast,60,2013-04-11 16:53:00
1:40 PM,46.4,41.0,81,30.01,10.0,North,-9999.0,-,N/A,,Overcast,0,2013-04-11 17:40:00
1:53 PM,48.9,41.0,74,30.02,10.0,NE,12.7,-,N/A,,Overcast,40,2013-04-11 17:53:00
2:01 PM,50.0,39.2,66,30.02,10.0,NE,8.1,-,N/A,,Overcast,50,2013-04-11 18:01:00
2:17 PM,50.0,39.2,66,30.02,10.0,NNE,9.2,-,N/A,,Unknown,30,2013-04-11 18:17:00
2:53 PM,51.1,37.9,61,30.01,10.0,ENE,9.2,-,N/A,,Overcast,70,2013-04-11 18:53:00
3:53 PM,52.0,37.9,59,30.01,10.0,East,9.2,-,N/A,,Overcast,100,2013-04-11 19:53:00
4:53 PM,51.1,37.0,59,30.02,10.0,ENE,4.6,-,N/A,,Overcast,60,2013-04-11 20:53:00
5:53 PM,48.9,35.1,59,30.04,10.0,SE,10.4,-,N/A,,Overcast,130,2013-04-11 21:53:00
6:53 PM,48.0,32.0,54,30.05,10.0,ENE,8.1,-,N/A,,Overcast,70,2013-04-11 22:53:00
7:53 PM,46.9,34.0,61,30.06,10.0,ENE,6.9,-,N/A,,Overcast,70,2013-04-11 23:53:00
8:53 PM,46.9,34.0,61,30.09,10.0,East,5.8,-,N/A,,Overcast,80,2013-04-12 00:53:00
9:53 PM,46.0,34.0,63,30.11,10.0,East,3.5,-,N/A,,Overcast,90,2013-04-12 01:53:00
10:53 PM,46.0,36.0,68,30.11,10.0,East,3.5,-,N/A,,Overcast,80,2013-04-12 02:53:00
11:53 PM,45.0,33.1,63,30.12,10.0,East,5.8,-,N/A,,Overcast,100,2013-04-12 03:53:00